RH
69 69 73 86 98 100 86 95 99 98 100 99 98 96 80 62 86 76 79 73 77 83 81 98 99 89 79 60 74 95 79 83 96 76 53 65 62 90 92 97 93 97 98 72
72 67 72 85 99 98 99 96 96 100 80 99 100 93 82 70 86 88 79 81 77 74 93 100 86 83 69 63 76 81 72 96 96 81 85 67 87 78 79 96 94 97 98 74
71 69 72 87 98 98 100 97 100 100 96 90 83 88 87 89 74 77 73 80 82 94 98 96 95 90 71 63 58 62 59 86 88 76 72 80 99 97 95 99 98 83 92 68
73 73 72 89 98 88 100 97 97 92 100 97 77 76 79 80 90 75 71 92 88 93 100 96 98 94 80 64 64 64 77 96 81 79 79 90 99 98 98 100 90 99 79 65
70 72 76 87 98 85 99 99 97 85 89 83 82 82 96 89 77 84 88 96 93 93 100 96 95 81 75 69 76 79 77 84 92 95 80 98 100 94 97 100 95 96 90 57
74 67 75 87 96 93 95 89 88 81 84 88 94 92 87 83 70 83 77 81 89 98 94 88 70 73 85 83 76 91 90 88 98 94 92 96 98 97 87 83 83 73 62 60
78 68 74 86 95 93 100 96 99 93 96 81 84 81 77 80 82 95 85 88 94 83 78 76 81 85 86 84 78 67 83 78 86 97 96 96 52 50 68 76 71 55 60 47
80 70 72 86 91 96 100 100 100 93 92 82 81 79 83 82 78 93 90 83 74 79 88 91 96 95 88 84 68 68 63 76 95 100 97 72 50 47 52 57 56 52 54 50
82 70 74 84 93 95 98 98 100 99 91 91 72 86 86 92 92 93 91 87 87 89 91 87 92 98 82 90 87 73 68 67 83 99 98 94 51 45 41 41 57 49 48 53
82 72 75 84 96 90 99 97 99 100 90 82 76 87 87 88 94 96 94 92 92 77 97 91 96 99 81 89 82 96 87 81 88 96 95 87 69 60 45 52 50 52 53 53
84 73 75 85 93 89 98 96 96 100 90 85 75 82 90 95 94 97 92 99 92 96 97 89 92 91 95 89 81 86 90 93 96 85 94 88 50 46 44 47 53 64 68 64
84 73 76 88 87 90 98 99 99 98 88 92 90 76 70 81 87 91 98 99 91 89 88 91 89 93 94 89 98 76 88 79 89 83 79 58 53 50 51 57 61 69 77 85
75 73 74 91 87 93 99 99 100 93 98 92 94 88 79 89 86 79 95 97 90 93 90 93 96 94 91 95 91 87 78 75 80 73 61 67 59 50 55 64 71 86 85 81
78 78 88 86 91 93 99 100 100 87 90 96 85 86 89 83 89 92 94 98 92 94 95 94 95 96 83 88 77 85 82 79 78 78 69 58 57 53 63 79 79 80 79 76
86 92 89 91 93 88 96 100 99 87 94 99 97 86 83 84 94 98 96 97 98 99 99 98 98 94 85 89 82 84 77 78 77 75 58 54 52 61 70 75 80 77 77 79
93 92 93 94 93 87 99 100 92 93 84 93 100 86 81 86 90 93 97 96 98 99 97 95 94 84 84 93 93 69 60 59 59 59 57 64 70 70 67 78 78 78 77 74
86 93 95 96 90 96 99 98 96 90 83 98 99 98 84 77 81 90 98 96 97 99 98 98 93 85 85 88 93 64 63 60 55 65 66 70 66 71 75 76 78 77 77 73
95 99 97 96 95 96 98 99 100 94 91 92 100 99 96 78 94 98 96 97 98 95 98 91 94 86 88 98 78 69 66 70 72 75 69 63 78 80 85 79 77 82 83 78
99 98 94 97 100 99 99 100 100 91 85 99 100 100 98 86 96 92 91 95 100 92 97 96 96 94 98 76 72 69 73 65 79 88 86 81 83 88 87 83 83 84 87 82
88 92 100 100 99 96 98 98 99 99 97 98 98 91 99 94 94 98 97 99 100 100 97 94 100 98 84 81 79 79 70 82 83 87 96 93 93 91 89 81 82 77 79 80
95 99 100 100 99 94 96 100 100 100 100 98 93 91 98 90 98 99 99 100 100 96 91 96 93 97 89 79 80 82 80 83 74 71 79 75 77 83 87 88 84 80 78 74
100 100 100 96 97 100 100 100 100 100 98 98 98 95 91 99 96 98 100 94 98 91 93 96 94 88 77 85 85 86 87 83 80 79 84 82 80 78 80 80 80 80 75 68
100 99 100 100 100 100 98 96 100 100 98 100 99 99 93 97 93 97 93 95 97 87 95 96 91 84 86 89 91 93 89 89 90 89 84 81 82 77 76 81 73 72 70 66
98 100 100 100 99 98 97 94 94 93 100 99 93 99 93 93 96 97 94 93 88 99 100 88 82 82 88 88 90 91 95 94 90 89 84 82 80 82 77 70 69 69 70 67
100 100 99 97 99 97 98 98 95 99 100 97 92 93 85 94 96 91 90 97 98 95 85 89 87 88 90 91 91 94 94 89 85 83 85 84 82 83 82 75 71 69 68 63
100 99 98 95 99 97 98 100 100 100 93 94 91 91 86 88 93 95 95 94 94 78 92 95 99 93 89 90 89 89 88 84 83 81 80 80 81 83 90 82 76 69 62 60
99 97 97 99 99 98 97 99 99 91 89 92 93 82 75 93 100 97 90 87 82 92 97 98 96 89 91 88 87 87 84 82 81 81 88 88 86 81 78 86 84 69 62 57
Wind_Speed
30 32 35 36 36 30 19 4 2 19 47 6 3 4 8 5 5 2 2 3 5 6 7 5 8 10 7 6 10 10 9 4 4 12 12 14 15 10 15 10 8 5 4 14
29 31 34 35 32 29 14 3 2 17 24 5 5 7 4 4 4 5 5 6 5 8 6 6 10 8 7 9 11 13 11 5 4 8 1 10 9 16 18 11 9 11 2 9
29 29 32 35 32 29 19 2 3 3 5 2 12 9 6 5 4 5 5 4 7 7 7 9 4 6 4 5 12 10 14 3 7 8 8 3 7 10 16 14 7 8 13 19
28 28 29 34 31 29 11 5 3 3 5 6 10 5 9 11 7 6 10 5 15 8 6 9 10 10 6 5 10 10 10 6 10 16 18 18 20 23 15 17 19 7 12 7
25 28 29 31 30 32 3 1 3 3 6 13 13 13 8 11 13 7 7 11 12 15 9 9 6 9 8 7 4 9 4 7 3 19 20 22 17 16 16 18 16 15 23 3
24 25 25 28 30 25 4 8 4 2 10 8 6 7 7 12 7 7 13 13 13 12 17 16 12 2 2 2 2 6 5 4 2 11 12 14 1 3 1 8 11 11 3 2
22 24 24 26 26 24 12 8 4 2 4 9 9 6 8 9 11 7 5 12 11 6 9 6 8 10 11 12 10 9 4 9 6 7 12 4 2 3 7 11 9 5 8 4
22 23 22 25 26 22 20 12 3 1 4 6 8 11 5 7 8 12 16 12 11 8 3 3 3 3 4 6 6 9 10 4 2 4 4 6 4 5 1 3 2 2 6 5
21 22 22 24 26 23 20 20 6 2 4 4 5 6 5 3 3 2 4 3 7 8 3 3 4 4 3 4 2 2 4 2 3 3 4 2 4 2 3 2 2 4 2 4
20 22 23 24 25 24 19 12 10 3 2 0 4 3 3 3 2 2 2 4 2 2 4 3 3 3 4 5 5 4 4 1 6 3 3 7 7 6 4 3 3 3 3 3
19 21 20 24 21 22 18 17 10 1 2 2 3 5 4 2 2 1 1 3 2 2 2 3 3 2 5 3 4 5 5 6 4 3 2 6 3 5 3 2 1 1 2 1
18 21 19 23 20 20 16 5 5 4 0 1 2 4 7 5 3 3 3 3 1 4 3 1 2 1 2 4 3 2 4 6 4 7 5 3 3 2 3 1 1 1 1 3
20 19 19 20 20 19 14 11 8 4 1 2 1 5 7 12 13 7 2 2 1 1 2 3 2 2 4 4 5 3 3 3 2 1 1 5 5 3 2 5 3 5 6 7
19 20 20 20 19 20 15 9 5 3 2 1 2 1 1 4 10 7 4 2 4 2 1 0 2 1 4 3 2 3 5 6 5 4 6 4 5 3 4 5 7 10 9 7
23 21 21 19 18 21 17 14 10 8 1 1 1 1 2 5 8 7 5 6 3 1 2 2 3 2 2 0 1 3 5 6 4 5 4 2 2 5 6 7 6 7 12 11
23 22 21 19 16 16 11 2 9 19 3 2 2 1 1 3 6 5 3 2 1 1 1 2 1 2 1 2 2 5 3 3 3 2 3 3 4 5 2 6 7 8 9 11
25 24 22 17 13 10 4 3 3 19 10 2 2 2 1 2 3 2 2 2 1 1 1 2 1 1 2 2 3 3 4 6 2 4 7 5 3 4 6 11 11 13 11 11
28 24 17 12 8 8 7 4 8 21 5 2 1 1 2 1 1 1 0 1 0 1 2 1 1 1 0 3 6 2 1 4 5 5 3 3 9 10 9 10 13 12 10 10
23 15 8 3 5 3 3 11 18 6 2 3 2 3 2 1 0 1 1 1 1 1 2 1 1 1 4 5 5 4 6 3 6 6 7 8 11 11 10 10 9 13 8 9
3 10 5 3 6 13 18 3 2 2 2 2 2 2 1 0 0 1 1 2 0 1 1 2 1 3 4 3 2 0 5 7 9 8 4 6 7 10 9 6 6 10 10 10
3 2 1 3 23 3 2 2 2 1 1 2 3 3 3 1 1 2 1 1 1 1 3 1 2 3 3 2 2 2 6 8 3 3 6 6 9 11 12 9 9 10 10 10
9 5 2 4 2 2 3 2 1 2 4 2 3 3 3 2 1 2 1 1 0 3 2 1 3 3 1 3 4 2 5 7 5 4 9 11 12 11 11 11 11 10 17 18
2 1 1 1 1 3 6 7 2 3 3 3 3 3 3 2 2 3 2 2 2 1 1 4 4 2 1 1 2 4 4 6 7 8 9 13 11 16 17 12 16 19 19 19
2 1 3 3 3 3 3 3 3 2 1 6 3 3 3 2 2 1 3 0 1 1 2 5 2 4 3 2 2 4 4 6 7 8 10 13 13 12 17 19 20 21 18 20
1 1 1 0 1 1 1 2 2 2 2 2 3 3 2 2 3 1 3 1 3 5 4 3 2 3 4 3 3 6 6 7 8 9 11 12 14 14 15 17 22 25 24 23
1 2 1 2 1 1 1 1 1 1 3 1 3 3 2 1 4 3 6 6 6 4 3 2 1 4 4 5 5 6 6 8 9 9 13 16 16 15 17 23 23 23 25 23
2 1 1 2 2 2 1 1 2 1 1 2 3 4 6 3 2 2 4 5 3 2 2 1 2 4 6 6 7 7 8 10 10 15 17 19 23 23 22 14 17 24 24 25
Wind_Direction
333 333 336 342 347 344 326 148 178 164 154 148 182 166 150 134 153 127 83 107 127 181 183 231 217 223 233 173 144 179 206 239 246 240 226 205 212 233 229 230 239 235 294 278
332 333 336 340 348 347 331 158 123 174 146 145 144 143 133 133 123 178 164 172 186 197 208 230 228 215 232 224 164 173 172 225 285 298 137 225 230 230 233 240 263 253 277 287
333 335 336 340 348 349 335 105 167 105 174 226 157 136 158 164 193 160 164 174 171 195 214 214 258 229 270 197 199 194 170 230 214 241 273 312 254 249 224 214 240 258 245 255
332 336 338 342 348 348 325 186 157 163 166 160 158 147 155 185 179 219 190 223 211 204 217 224 223 226 278 281 216 190 170 256 245 260 273 269 257 252 228 215 227 233 299 234
334 334 338 344 352 350 311 342 164 184 121 139 156 179 200 190 204 184 202 221 205 213 218 207 204 214 206 228 184 168 206 263 311 274 275 277 261 252 222 218 219 238 258 220
331 334 336 344 356 -0 335 334 310 118 151 158 158 181 163 204 187 221 223 214 233 210 228 230 235 296 310 253 288 189 178 227 252 281 298 312 98 260 235 162 178 211 144 223
329 334 337 342 349 353 323 290 268 107 161 179 202 181 196 208 200 218 241 226 232 216 246 231 231 277 287 280 258 217 215 227 262 295 301 359 135 184 192 156 252 32 37 36
328 334 335 337 344 344 333 314 266 263 132 174 170 202 191 230 239 238 243 230 241 167 129 114 155 226 233 229 211 189 207 181 281 278 301 288 32 355 7 177 251 357 127 126
328 334 331 335 340 346 339 321 274 305 121 204 122 169 180 197 216 228 226 239 220 187 169 180 168 184 163 190 186 81 131 212 175 342 318 305 231 301 321 268 9 351 84 170
329 332 331 333 339 343 336 290 289 311 113 350 131 164 156 163 176 234 282 275 100 163 159 149 150 185 164 167 190 156 142 174 223 253 277 285 261 282 292 68 241 346 323 202
325 328 327 330 339 341 335 299 275 297 71 215 184 154 151 158 190 240 262 255 213 122 197 144 183 155 203 141 207 173 162 153 192 199 249 289 344 336 40 229 306 325 292 247
323 326 323 327 336 335 334 280 248 241 56 280 287 230 209 206 189 174 173 317 277 181 152 198 104 123 134 162 206 236 205 185 182 184 215 257 302 296 329 257 25 25 143 113
322 322 318 325 326 328 330 298 251 132 114 270 348 236 238 234 226 192 190 225 23 198 194 158 155 218 135 177 230 188 256 175 218 86 315 263 273 282 38 5 79 84 92 109
318 316 318 321 319 323 324 304 254 182 137 206 241 127 189 201 183 187 212 346 298 256 196 163 109 248 187 220 185 183 201 143 182 264 278 271 253 224 134 89 92 90 73 84
313 313 314 315 320 321 312 291 220 196 226 306 328 245 200 163 173 176 199 240 271 219 206 168 182 229 176 246 89 236 185 185 172 218 200 175 269 163 143 128 116 106 112 95
317 314 313 312 313 312 299 198 210 206 197 27 327 325 179 130 173 175 201 261 251 256 183 237 248 268 174 164 230 257 212 239 197 202 100 86 97 98 79 106 112 104 105 115
315 313 309 303 298 285 240 292 304 192 173 162 323 328 343 153 144 171 203 200 222 241 235 215 216 222 170 198 218 242 311 239 143 122 119 83 191 161 109 109 106 99 91 94
307 303 293 288 277 264 271 249 171 165 115 93 136 280 312 302 178 157 354 203 242 263 313 341 350 303 70 260 247 230 135 99 80 27 12 139 113 100 101 115 118 107 106 110
304 293 258 198 215 224 180 151 151 155 131 157 131 154 241 2 30 70 57 335 228 337 233 162 167 195 225 233 224 183 194 174 144 71 70 98 116 120 119 120 115 118 116 114
197 141 184 196 195 146 124 92 109 13 334 56 202 137 167 262 228 40 52 349 17 293 271 313 198 258 253 217 185 263 170 141 140 116 103 117 116 135 135 130 114 127 127 122
214 190 204 76 137 121 43 90 131 156 227 201 199 164 138 169 168 149 8 173 329 288 275 288 259 265 248 323 255 322 167 158 137 95 114 109 136 141 129 113 108 114 117 120
301 301 115 120 63 59 136 161 58 201 224 203 167 160 124 104 6 106 53 139 5 249 304 290 255 253 260 352 358 38 137 136 111 122 123 121 122 126 118 119 117 104 112 120
350 30 87 126 58 163 191 177 192 213 192 187 161 123 116 108 61 69 69 108 227 342 243 239 236 259 304 16 50 76 75 98 107 105 107 113 111 118 124 115 114 117 111 119
47 101 182 196 171 235 190 207 191 249 141 146 120 96 111 114 89 123 99 150 25 321 283 239 252 209 165 107 91 115 109 102 102 105 113 114 115 109 109 115 123 121 115 124
76 25 343 304 30 352 300 234 274 275 148 90 96 75 89 105 113 112 123 119 247 221 236 235 238 165 136 117 108 117 111 109 105 109 109 109 110 106 95 104 115 117 120 121
91 60 51 313 263 224 269 250 279 268 135 112 57 111 102 146 135 123 207 145 227 248 222 241 149 133 116 116 109 104 104 107 111 111 115 112 110 110 108 102 108 117 124 120
13 270 269 224 242 251 265 240 250 153 150 161 119 123 197 91 65 264 198 210 226 239 278 223 169 145 133 119 105 100 105 108 108 108 105 108 109 111 106 98 98 117 123 124